ATLAS 5 CENTAUR DEB, 43984

Orbit data source: Space-Track

ATLAS 5 CENTAUR DEB, 43984 is space debris in HEO originally from a launch on Wed, 17 Sep 2014 UTC launched from the Air Force Eastern Test Range (AFETR). Debris objects in space refer to the collection of defunct objects orbiting the Earth. Examples of debris include non-operational satellites, rocket bodies, and fragments generated from explosions, collisions, or faulty payload assembly.

Loading next visibility...
ATLAS 5 CENTAUR DEB details
Identifier
43984, 2014-055AP
Orbit
HEO
Last TLE update2 days ago
Origin
Flag of USULA (US)
ManufacturerUnknown
MissionSpacecraft
Bus & MotorUnknown
MassUnknown
Launch date (UTC)
2014-09-17 (10 years ago)
Launch vehicleUnknown
Launch site
Air Force Eastern Test Range (AFETR)
Object type
Payload
Rocket body
Debris
Shape & HBRUnknown
Radar Cross SectionSmall (<0.1 m²)

Expand to show TLE details & history

TLE from 2 days ago
0 ATLAS 5 CENTAUR DEB
1 43984U 14055AP  24359.88849624 -.00000015  00000-0  00000-0 0  9992
2 43984  20.3826 151.3298 5187205 149.2896 255.5292  1.91689018 44086
Epoch: 2024-12-24T21:19Z
Definitive object data (Epoch: 2024-12-24T21:19:26.075Z)
Latitude-0.00001°
Longitude97.57293°
Altitude29,711.273 km
Speed2.744 km/s
True Right ascension10h 05m 17s
True Declination0° 00' 00"
Sunlit
Object was in daylight at TLE epoch
Visualization TLE readout
Latitude-4.24334°
Longitude85.87777°
Altitude33,068.568 km
Speed2.377 km/s
Apparent Right ascension09h 18m 56s
Apparent Declination-11° 28' 02"
Sunlit
Object is in daylight
Visualization observer readout
Local Sidereal Time09:15:27
Azimuth178.909° S
Elevation38.61°
Doppler factor1
Orbital elements
Apogee altitude35,198.423 km
Perigee altitude6,797.392 km
Semi-major axis27,376.045 km
Eccentricity0.5187205
Inclination20.3826°
RAAN151.3298°
Arg. of periapsis149.2896°
True anomaly210.75953°
Mean anomaly255.5292°
Eccentric anomaly232.08273°
Mean motion0.47917 °/min
BSTARUnknown
Orbital period751.3 mins
Loading maneuver chart data...

ATLAS 5 CENTAUR DEB Visibility forecast

Observer location: undefined°, undefined

Span
Click to sort rows by Start time (UTC) header in descending order
Start Az.
Max El. time (UTC)
Max El. Az.
Max El.
End time (UTC)
End Az.
251 mins2024-12-26 09:54:21.741Z178.909° S2024-12-26 13:00:21.741Z159.722° S38.872°2024-12-26 14:05:21.741Z94.878° ESE
340 mins2024-12-27 04:14:21.741Z205.325° SW2024-12-27 09:54:21.741Z194.791° SSW28.917°2024-12-27 09:54:21.741Z194.791° SSW
|